Location: Kalberh�ni
(46.4610°N, 7.2453°E)
Time: 00:51:34
(UTC+00:00)

FALCON 9 DEB - Pass Details

Date: 31 October 2021
Orbit: 345 x 354 km, 53.0° (Epoch: 28 November)

Event Time Altitude Azimuth Distance (km) Brightness Sun altitude
Rises 16:40:56 0° 239° (WSW) 2,155 8.5 -4.7°
Reaches altitude 10° 16:42:56 10° 239° (WSW) 1,319 7.2 -5.0°
Maximum altitude 16:45:52 89° 320° (NW) 361 2.7 -5.5°
Drops below altitude 10° 16:48:52 10° 60° (ENE) 1,340 5.0 -6.0°
Enters shadow 16:49:20 - 60° (ENE) 1,535 5.3 -6.1°
